User: anonymous   Login
Location: Caltech
(34.1382°N, 118.1253°W)
Time: 04:52:52
(UTC-07:00)
Language:

SEDSat Delta rocket - Orbit

View from above orbital plane
View from above orbital plane
View from above satellite
View from above satellite

Ground track
Ground track

The orbit data is extracted from the following two-line orbital elements,

1 25510U 98061C   14304.33994240  .00000853  00000-0  13913-3 0  9955
2 25510 031.4362 242.1902 0332885 214.0858 291.7787 14.35949144839163
Epoch (UTC): 31 October 2014 08:09:31
Eccentricity: 0.0332885
inclination: 31.4362°
perigee height: 534 km
apogee height: 1010 km
right ascension of ascending node: 242.1902°
argument of perigee: 214.0858°
revolutions per day: 14.35949144
mean anomaly at epoch: 291.7787°
orbit number at epoch: 83916

The dashed part of the orbit path shows where the satellite is in the earth's shadow,  

DLR